Flag for U.S.A. Weather past 2 weeks in Syracuse, New York, U.S.A.

Now
82 °F

Broken clouds.


Feels Like: 81 °F
Forecast: 54 / 86 °F
Wind: 6 mph from South

Location: Syracuse Hancock International Airport

Current Time: May 29, 2015 at 4:54:49 PM

Latest Report: May 29, 2015 at 3:54 PM


Visibility: 10 mi

Pressure: 30.17 "Hg

Humidity: 35%

Dew point: 52 °F

Location of SyracuseLocation

Historic Weather in Syracuse — Graph

°F

Syracuse temperature yesterday

Maximum temperature yesterday: 73 °F (at 4:54 PM)
Minimum temperature yesterday: 58 °F (at 11:54 PM)
Average temperature yesterday: 68 °F

Past Weeks' High & Low Weather Summary

 TemperatureHumidityPressure
High87 °F (May 25, 2:54 PM)100% (May 16, 5:54 AM)30.43 "Hg (May 16, 5:54 AM)
Low35 °F (May 23, 5:54 AM)22% (May 14, 5:54 PM)29.83 "Hg (May 19, 10:54 AM)
Average64 °F60%30.08 "Hg
* Reported May 14 3:54 PM — May 29 3:54 PM, Syracuse, Weather by CustomWeather, © 2015

Note: Actual official high and low records may vary slightly from our data, if they occured in-between our weather recording intervals... More about our weather records

Advertising

Syracuse weather history for previous 24 hours

 ConditionsComfort  
Time TempWeatherWind HumidityBarometerVisibility
3:54 PM
Fri, May 29
82 °FBroken clouds.6 mph35%30.17 "Hg10 mi
2:54 PM82 °FPartly sunny.5 mph33%30.18 "Hg10 mi
1:54 PM81 °FPartly sunny.No wind35%30.20 "Hg10 mi
12:54 PM79 °FPartly sunny.No wind35%30.22 "Hg10 mi
11:54 AM78 °FPartly sunny.No wind42%30.23 "Hg10 mi
10:54 AM76 °FBroken clouds.9 mph45%30.24 "Hg10 mi
9:54 AM73 °FScattered clouds.12 mph55%30.26 "Hg10 mi
8:54 AM68 °FScattered clouds.5 mph68%30.27 "Hg10 mi
7:54 AM60 °FScattered clouds.3 mph83%30.28 "Hg10 mi
6:54 AM55 °FScattered clouds.3 mph93%30.28 "Hg10 mi
5:54 AM52 °FPassing clouds.3 mph97%30.27 "Hg10 mi
4:54 AM54 °FPassing clouds.5 mph93%30.26 "Hg10 mi
3:54 AM53 °FClear.7 mph96%30.27 "Hg10 mi
2:54 AM56 °FClear.3 mph90%30.26 "Hg10 mi
1:54 AM56 °FPassing clouds.6 mph90%30.27 "Hg10 mi
12:54 AM58 °FClear.5 mph87%30.27 "Hg10 mi
11:54 PM
Thu, May 28
58 °FClear.5 mph90%30.27 "Hg10 mi
10:54 PM61 °FPassing clouds.3 mph83%30.27 "Hg10 mi
9:54 PM62 °FPassing clouds.No wind78%30.26 "Hg10 mi
8:54 PM65 °FPassing clouds.No wind73%30.23 "Hg10 mi
7:54 PM70 °FPassing clouds.3 mph57%30.22 "Hg10 mi
6:54 PM72 °FScattered clouds.6 mph53%30.21 "Hg10 mi
5:54 PM73 °FScattered clouds.10 mph53%30.22 "Hg10 mi
4:54 PM73 °FBroken clouds.9 mph53%30.21 "Hg10 mi
Weather by CustomWeather, © 2015

See weather overviewHow to use our weather pages